User: anonymous   Login
Location: Unspecified
(0.0000°N, 0.0000°E)
Time: 01:01:51
(UTC+00:00)
Language:

WGS 6 (USA 244) - Orbit

View from above orbital plane
View from above orbital plane
View from above satellite
View from above satellite

Ground track
Ground track

The orbit data is extracted from the following two-line orbital elements,

1 39222U 13041A   20059.26803726 +.00000087 +00000-0 +00000-0 0  9992
2 39222 000.0196 137.3523 0000386 099.1233 242.3486 01.00272276022981
Epoch (UTC): 28 February 2020 06:25:58
Eccentricity: 0.0000386
inclination: 0.0196°
perigee height: 35784 km
apogee height: 35788 km
right ascension of ascending node: 137.3523°
argument of perigee: 99.1233°
revolutions per day: 1.00272276
mean anomaly at epoch: 242.3486°
orbit number at epoch: 2298

The dashed part of the orbit path shows where the satellite is in the earth's shadow,  

DLR